Location: Bruderhein
(53.8035°N, 112.9265°W)
Time: 10:19:18
(UTC+00:00)

DIWATA 2B (PO-101) - Pass Details

Date: 05 April 2023
Orbit: 581 x 593 km, 98.0° (Epoch: 29 May)

Event Time Altitude Azimuth Distance (km) Brightness Sun altitude
Exits shadow 10:20:00 40° 286° (WNW) 864 ? -20.8°
Drops below altitude 10° 10:23:22 10° 334° (NNW) 1,915 ? -20.5°
Sets 10:25:38 0° 341° (NNW) 2,822 ? -20.2°
